User: anonymous   Login
Location: Dover
(39.1580°N, 75.5250°W)
Time: 02:20:09
(UTC-05:00)
Language:

SeaSat 1 - Orbit

View from above orbital plane
View from above orbital plane
View from above satellite
View from above satellite

Ground track
Ground track

The orbit data is extracted from the following two-line orbital elements,

1 10967U 78064A   15061.50983520  .00000572  00000-0  20984-3 0  9993
2 10967 107.9915 350.0535 0002894 272.2521 087.8291 14.43298854925731
Epoch (UTC): 02 March 2015 12:14:09
Eccentricity: 0.0002894
inclination: 107.9915°
perigee height: 745 km
apogee height: 749 km
right ascension of ascending node: 350.0535°
argument of perigee: 272.2521°
revolutions per day: 14.43298854
mean anomaly at epoch: 87.8291°
orbit number at epoch: 92573

The dashed part of the orbit path shows where the satellite is in the earth's shadow,  

DLR